FW6919 Weather Reports


Display with metric or nautical units.
time (UTC)temp
F
wind
direction
speed
MPH
gust
MPH
rain 1hr
in
rain 24hr
in
rain mn
in
humidity
%
barometer
mb
20260505011114 77 169 7.0 20.0 0.00 0.00 0.00 70 1006.5
20260505010611 77 202 9.0 20.0 0.00 0.00 0.00 69 1006.5
20260505010112 77 178 7.0 15.0 0.00 0.00 0.00 69 1006.5
20260505005614 77 176 8.0 15.0 0.00 0.00 0.00 69 1006.6
20260505005114 77 161 5.0 16.0 0.00 0.00 0.00 68 1006.4
20260505004612 77 196 7.0 17.0 0.00 0.00 0.00 68 1006.6
20260505004113 78 189 7.0 20.0 0.00 0.00 0.00 68 1006.5
20260505003614 78 208 9.0 20.0 0.00 0.00 0.00 68 1006.5
20260505003112 78 219 8.0 14.0 0.00 0.00 0.00 68 1006.5
20260505002613 78 234 12.0 14.0 0.00 0.00 0.00 67 1006.6
20260505002113 78 159 9.0 21.0 0.00 0.00 0.00 67 1006.7
20260505001613 79 151 10.0 21.0 0.00 0.00 0.00 67 1006.7
20260505001111 79 165 11.0 24.0 0.00 0.00 0.00 67 1006.6
20260505000611 79 197 10.0 25.0 0.00 0.00 0.00 67 1006.5
20260505000115 79 156 6.0 25.0 0.00 0.00 0.00 66 1006.8
20260504235614 79 200 9.0 20.0 0.00 0.00 0.00 66 1006.8
20260504235116 79 199 10.0 25.0 0.00 0.00 0.00 65 1006.8
20260504234613 79 181 7.0 25.0 0.00 0.00 0.00 65 1006.8
20260504234113 79 204 11.0 24.0 0.00 0.00 0.00 65 1006.7
20260504233615 79 187 14.0 21.0 0.00 0.00 0.00 64 1007.0
20260504233114 79 198 8.0 21.0 0.00 0.00 0.00 64 1007.0
20260504232614 79 163 13.0 21.0 0.00 0.00 0.00 64 1007.1
20260504232112 80 240 12.0 22.0 0.00 0.00 0.00 64 1006.9
20260504231611 80 234 10.0 22.0 0.00 0.00 0.00 63 1006.9
20260504231114 80 218 9.0 18.0 0.00 0.00 0.00 63 1007.0
20260504230612 80 217 11.0 18.0 0.00 0.00 0.00 63 1007.0
20260504230112 80 156 8.0 18.0 0.00 0.00 0.00 62 1007.0
20260504225612 80 176 16.0 26.0 0.00 0.00 0.00 61 1007.1
20260504225112 80 208 10.0 26.0 0.00 0.00 0.00 62 1007.4
20260504224614 81 200 10.0 25.0 0.00 0.00 0.00 62 1007.4
20260504224112 81 197 11.0 26.0 0.00 0.00 0.00 61 1007.3
20260504223612 81 226 14.0 26.0 0.00 0.00 0.00 61 1007.4
20260504223110 81 164 11.0 23.0 0.00 0.00 0.00 61 1007.3
20260504222612 82 211 10.0 24.0 0.00 0.00 0.00 61 1007.4
20260504222111 82 162 6.0 25.0 0.00 0.00 0.00 61 1007.3
20260504221613 81 237 12.0 25.0 0.00 0.00 0.00 61 1007.2
20260504221113 81 198 18.0 24.0 0.00 0.00 0.00 61 1007.3
20260504220616 82 177 13.0 24.0 0.00 0.00 0.00 61 1007.4
20260504220113 82 156 9.0 22.0 0.00 0.00 0.00 61 1007.6
20260504215615 82 208 7.0 22.0 0.00 0.00 0.00 61 1007.4
20260504215112 82 165 22.0 20.0 0.00 0.00 0.00 61 1007.7
20260504214615 81 155 10.0 22.0 0.00 0.00 0.00 61 1007.6
20260504214110 81 163 12.0 24.0 0.00 0.00 0.00 61 1007.7
20260504213615 81 227 13.0 24.0 0.00 0.00 0.00 61 1007.8
20260504213111 81 160 10.0 25.0 0.00 0.00 0.00 61 1007.8
20260504212614 81 148 13.0 25.0 0.00 0.00 0.00 60 1008.0
20260504212128 81 180 12.0 24.0 0.00 0.00 0.00 61 1008.1
20260504211611 82 194 6.0 22.0 0.00 0.00 0.00 60 1008.0
20260504211113 82 154 15.0 26.0 0.00 0.00 0.00 61 1008.0
20260504210612 82 143 14.0 26.0 0.00 0.00 0.00 60 1008.0
20260504210113 82 183 11.0 25.0 0.00 0.00 0.00 60 1008.3
20260504205611 82 217 6.0 25.0 0.00 0.00 0.00 60 1008.3
20260504205114 81 182 10.0 24.0 0.00 0.00 0.00 60 1008.4
20260504204614 81 229 12.0 27.0 0.00 0.00 0.00 60 1008.5
20260504204111 81 151 17.0 27.0 0.00 0.00 0.00 61 1008.7
20260504203611 80 217 12.0 23.0 0.00 0.00 0.00 61 1008.6
20260504203111 81 154 17.0 24.0 0.00 0.00 0.00 60 1008.7
20260504202610 80 220 13.0 24.0 0.00 0.00 0.00 61 1008.9
20260504202114 80 194 12.0 22.0 0.00 0.00 0.00 61 1008.9
20260504201611 80 172 20.0 22.0 0.00 0.00 0.00 61 1009.2
20260504201117 80 153 8.0 23.0 0.00 0.00 0.00 62 1009.3
20260504200614 80 169 16.0 24.0 0.00 0.00 0.00 61 1009.5
20260504200111 80 155 10.0 24.0 0.00 0.00 0.00 61 1009.6
20260504195615 80 219 21.0 22.0 0.00 0.00 0.00 61 1009.9
20260504195112 80 143 14.0 22.0 0.00 0.00 0.00 61 1010.0
20260504194613 80 226 15.0 22.0 0.00 0.00 0.00 61 1010.0
20260504194113 80 220 12.0 22.0 0.00 0.00 0.00 60 1010.2
20260504193613 80 202 14.0 20.0 0.00 0.00 0.00 61 1010.2
20260504193111 80 207 7.0 25.0 0.00 0.00 0.00 61 1010.2
20260504192613 80 217 9.0 25.0 0.00 0.00 0.00 60 1010.1
20260504192116 80 164 10.0 20.0 0.00 0.00 0.00 61 1010.3
20260504191611 79 212 16.0 20.0 0.00 0.00 0.00 61 1010.2
20260504191113 79 186 7.0 24.0 0.00 0.00 0.00 62 1010.5
20260504190612 79 167 16.0 24.0 0.00 0.00 0.00 62 1010.7
20260504190114 78 216 8.0 24.0 0.00 0.00 0.00 61 1010.7
20260504185612 78 169 24.0 23.0 0.00 0.00 0.00 61 1010.7
20260504185110 78 171 14.0 23.0 0.00 0.00 0.00 60 1010.8
20260504184612 78 241 12.0 26.0 0.00 0.00 0.00 61 1011.0
20260504184111 78 212 12.0 26.0 0.00 0.00 0.00 61 1010.9
20260504183612 78 158 11.0 25.0 0.00 0.00 0.00 61 1011.1
20260504183113 78 196 6.0 24.0 0.00 0.00 0.00 62 1011.2
20260504182611 78 200 15.0 20.0 0.00 0.00 0.00 62 1011.2
20260504182112 77 198 7.0 25.0 0.00 0.00 0.00 64 1011.4
20260504181613 77 207 9.0 25.0 0.00 0.00 0.00 63 1011.4
20260504181112 76 215 8.0 23.0 0.00 0.00 0.00 64 1011.5
20260504180610 77 192 16.0 20.0 0.00 0.00 0.00 62 1011.6
20260504180112 77 227 16.0 25.0 0.00 0.00 0.00 63 1011.6
20260504175613 77 200 10.0 26.0 0.00 0.00 0.00 62 1011.7
20260504175112 76 204 11.0 26.0 0.00 0.00 0.00 64 1011.8
20260504174611 76 220 11.0 23.0 0.00 0.00 0.00 64 1011.8
20260504174113 76 198 11.0 23.0 0.00 0.00 0.00 63 1012.1
20260504173612 76 149 15.0 24.0 0.00 0.00 0.00 63 1012.1
20260504173115 76 196 14.0 24.0 0.00 0.00 0.00 63 1012.1
20260504172626 76 215 16.0 23.0 0.00 0.00 0.00 63 1012.2
20260504172128 75 233 14.0 23.0 0.00 0.00 0.00 64 1012.3
20260504171629 75 193 10.0 22.0 0.00 0.00 0.00 64 1012.2
20260504171125 75 194 14.0 22.0 0.00 0.00 0.00 63 1012.3
20260504170625 75 186 13.0 19.0 0.00 0.00 0.00 63 1012.4
20260504170129 75 173 7.0 19.0 0.00 0.00 0.00 64 1012.4
20260504160126 72 194 4.0 25.0 0.00 0.00 0.00 64 1013.3
20260504151125 70 227 9.0 24.0 0.00 0.00 0.00 68 1013.4
20260504150624 70 217 18.0 24.0 0.00 0.00 0.00 68 1013.5
20260504150124 70 164 18.0 38.0 0.00 0.00 0.00 69 1013.7
20260504141124 67 220 7.0 24.0 0.00 0.00 0.00 72 1013.6
20260504140624 67 158 15.0 24.0 0.00 0.00 0.00 73 1013.8
20260504140122 67 165 13.0 20.0 0.00 0.00 0.00 73 1013.9
20260504130623 65 281 13.0 21.0 0.00 0.00 0.00 75 1014.0
20260504130123 64 212 12.0 20.0 0.00 0.00 0.00 76 1014.1
20260504120121 62 182 10.0 12.0 0.00 0.00 0.00 76 1013.7
20260504110619 63 203 9.0 16.0 0.00 0.00 0.00 74 1013.7
20260504110119 63 170 4.0 16.0 0.00 0.00 0.00 74 1013.7
20260504100117 64 167 9.0 15.0 0.00 0.00 0.00 72 1013.9
20260504090116 64 240 5.0 14.0 0.00 0.00 0.00 67 1014.4
20260504081613 65 193 5.0 17.0 0.00 0.00 0.00 65 1014.6
20260504081114 65 186 3.0 17.0 0.00 0.00 0.00 64 1014.7
20260504080612 65 213 5.0 15.0 0.00 0.00 0.00 64 1014.7
20260504080114 65 228 7.0 15.0 0.00 0.00 0.00 63 1014.8
20260504070114 66 213 5.0 11.0 0.00 0.00 0.00 62 1015.4
20260504060111 67 166 4.0 11.0 0.00 0.00 0.00 60 1016.0
20260504050612 69 192 6.0 11.0 0.00 0.00 0.00 56 1016.6
20260504050112 69 222 5.0 11.0 0.00 0.00 0.00 56 1016.7
20260504045615 69 193 5.0 13.0 0.00 0.00 0.00 56 1016.7
20260504045114 69 215 5.0 14.0 0.00 0.00 0.00 55 1016.7
20260504044610 69 192 6.0 14.0 0.00 0.00 0.00 55 1016.7
20260504044113 69 209 5.0 14.0 0.00 0.00 0.00 55 1016.7
20260504043612 69 189 6.0 11.0 0.00 0.00 0.00 55 1016.8
20260504043113 69 200 7.0 12.0 0.00 0.00 0.00 55 1016.8
20260504042613 70 175 4.0 12.0 0.00 0.00 0.00 55 1016.9
20260504042115 70 212 7.0 12.0 0.00 0.00 0.00 55 1016.9
20260504041611 69 166 7.0 12.0 0.00 0.00 0.00 55 1017.1
20260504041116 69 226 5.0 10.0 0.00 0.00 0.00 55 1017.0
20260504040613 70 188 2.0 10.0 0.00 0.00 0.00 55 1017.0
20260504040112 70 213 3.0 10.0 0.00 0.00 0.00 55 1016.9
20260504035612 70 221 2.0 11.0 0.00 0.00 0.00 55 1016.8
20260504035112 70 207 7.0 11.0 0.00 0.00 0.00 54 1016.9
20260504034612 70 226 6.0 9.0 0.00 0.00 0.00 54 1016.8
20260504034112 70 196 4.0 10.0 0.00 0.00 0.00 54 1016.8
20260504033616 70 171 4.0 10.0 0.00 0.00 0.00 53 1016.7
20260504033113 71 181 3.0 10.0 0.00 0.00 0.00 53 1016.8
20260504032610 71 190 3.0 10.0 0.00 0.00 0.00 53 1016.8
20260504032110 71 196 4.0 14.0 0.00 0.00 0.00 52 1016.8
20260504031613 71 189 6.0 14.0 0.00 0.00 0.00 52 1016.7
20260504031112 71 215 6.0 12.0 0.00 0.00 0.00 52 1016.7
20260504030613 71 190 5.0 12.0 0.00 0.00 0.00 51 1016.8
20260504030113 72 173 5.0 15.0 0.00 0.00 0.00 51 1016.6
20260504025613 72 213 9.0 15.0 0.00 0.00 0.00 51 1016.7
20260504025115 72 217 5.0 8.0 0.00 0.00 0.00 50 1016.6
20260504024610 72 211 4.0 9.0 0.00 0.00 0.00 50 1016.7
20260504024113 72 165 6.0 12.0 0.00 0.00 0.00 49 1016.6
20260504023610 72 181 4.0 12.0 0.00 0.00 0.00 49 1016.6
20260504023111 73 196 7.0 11.0 0.00 0.00 0.00 48 1016.6
20260504022612 73 198 6.0 11.0 0.00 0.00 0.00 48 1016.4
20260504022116 73 174 5.0 11.0 0.00 0.00 0.00 47 1016.4
20260504021613 73 209 5.0 14.0 0.00 0.00 0.00 47 1016.5
20260504021112 73 189 5.0 14.0 0.00 0.00 0.00 46 1016.5
20260504020614 74 186 3.0 11.0 0.00 0.00 0.00 46 1016.5
20260504020118 74 192 3.0 12.0 0.00 0.00 0.00 45 1016.5
20260504015618 74 159 8.0 15.0 0.00 0.00 0.00 45 1016.5
20260504015117 74 202 5.0 15.0 0.00 0.00 0.00 45 1016.4
20260504014617 74 169 7.0 18.0 0.00 0.00 0.00 45 1016.5
20260504014116 74 188 12.0 18.0 0.00 0.00 0.00 45 1016.4
20260504013618 74 148 10.0 15.0 0.00 0.00 0.00 45 1016.3
20260504013119 75 229 9.0 16.0 0.00 0.00 0.00 45 1016.2
20260504012616 75 198 6.0 16.0 0.00 0.00 0.00 44 1016.3
20260504012117 75 163 12.0 13.0 0.00 0.00 0.00 44 1016.2
20260504011616 75 209 6.0 14.0 0.00 0.00 0.00 44 1016.1